Tracking 25709 objects as of 23-May-2022
HD Live streaming from Space Station
objects crossing your sky now

COSMOS 2251 DEB

Track COSMOS 2251 DEB now!
10-day predictions


NORAD ID: 33757
Int'l Code: 1993-036E
Perigee: 781.6 km
Apogee: 802.2 km
Inclination: 74.0 °
Period: 100.6 minutes
Semi major axis: 7162 km
RCS: 0.1374 m2 (medium)
Launch date: June 16, 1993
Source: Commonwealth of Independent States (former USSR) (CIS)
Launch site: PLESETSK MISSILE AND SPACE COMPLEX (PKMTR)

Note: This is SATELLITE DEBRIS
aabbcc
Your satellite tracking list
Your tracking list is empty




NASA's NSSDC Master Catalog

Two Line Element Set (TLE):
1 33757U 93036E   22142.87940532  .00000068  00000-0  35046-4 0  9991
2 33757  74.0349 175.5030 0014358 152.3635  22.2173 14.32088039693857
Source of the keplerian elements: AFSPC